Date String (YYYY-MM-DD hh:mm:ss) UTC,Instrument flags,Ambient pressure (hPa),Sample flow (lpm),Bypass flow (lpm),Sample temperature (°C),Ambient temperature (°C),ASC tube jacket temperature (°C),LED temperature (°C),Box temperature (°C),Sample RH (%),Span deviation,Mass concentration (μg/m³),Mass concentration (μg/m³),Mass concentration (μg/m³)
DateTimeUTC,F1_M11,P_M11,Q1_M11,Q2_M11,T1_M11,T2_M11,T3_M11,T4_M11,T5_M11,U1_M11,ZSPAN_M11,X0_M11,X2_M11,X1_M11
2021-08-23 03:00:00,,0825.5,5.01,0.00,29.1,27.4,00.0,38.2,30.9,16.4,0001.7,0012.55,0008.82,0008.47
2021-08-23 03:01:00,,0825.5,4.99,0.00,29.1,27.7,00.0,38.2,31.0,16.2,0001.6,0012.44,0008.81,0008.46
2021-08-23 03:02:00,,0825.5,5.00,0.00,29.2,27.9,00.0,38.2,31.0,15.8,0001.9,0012.53,0008.82,0008.47
2021-08-23 03:03:00,,0825.5,5.00,0.00,29.2,28.1,00.0,38.3,31.1,15.7,0002.0,0012.61,0008.80,0008.45
2021-08-23 03:04:00,,0825.5,5.00,0.00,29.3,28.3,00.0,38.3,31.2,15.5,0002.4,0012.35,0008.70,0008.37
2021-08-23 03:05:00,,0825.5,4.99,0.00,29.3,28.4,00.0,38.3,31.2,15.7,0002.6,0011.98,0008.65,0008.34
2021-08-23 03:06:00,,0825.5,5.01,0.00,29.4,28.5,00.0,38.3,31.3,15.7,0002.4,0011.89,0008.65,0008.33
2021-08-23 03:07:00,,0825.6,4.99,0.00,29.4,28.6,00.0,38.3,31.3,15.7,0002.6,0012.08,0008.64,0008.32
2021-08-23 03:08:00,,0825.6,5.00,0.00,29.5,28.7,00.0,38.4,31.4,15.6,0002.7,0012.28,0008.63,0008.31
2021-08-23 03:09:00,,0825.6,5.00,0.00,29.5,28.8,00.0,38.4,31.4,15.7,0002.4,0012.23,0008.59,0008.27
2021-08-23 03:10:00,,0825.7,5.00,0.00,29.6,28.8,00.0,38.4,31.5,15.6,0002.4,0012.30,0008.59,0008.26
2021-08-23 03:11:00,,0825.6,5.00,0.00,29.5,27.3,00.0,38.4,31.1,15.7,0002.3,0012.41,0008.59,0008.27
2021-08-23 03:12:00,,0825.7,4.99,0.00,29.4,26.3,00.0,38.4,30.7,15.9,0002.1,0012.44,0008.58,0008.27
2021-08-23 03:13:00,,0825.7,4.99,0.00,29.3,26.5,00.0,38.4,30.8,16.2,0002.1,0012.91,0008.59,0008.27
2021-08-23 03:14:00,,0825.7,5.00,0.00,29.3,26.8,00.0,38.4,30.9,16.6,0001.7,0013.14,0008.58,0008.27
2021-08-23 03:15:00,,0825.8,5.00,0.00,29.3,27.2,00.0,38.4,31.0,17.1,0001.1,0013.35,0008.61,0008.27
2021-08-23 03:16:00,,0826.1,5.00,0.00,29.3,27.6,00.0,38.4,31.1,17.3,0001.0,0014.19,0008.62,0008.26
2021-08-23 03:17:00,,0825.8,4.99,0.00,29.3,27.9,00.0,38.4,31.2,17.5,0001.0,0014.40,0008.66,0008.26
2021-08-23 03:18:00,,0826.0,5.00,0.00,29.4,28.1,00.0,38.4,31.2,17.5,0000.9,0014.79,0008.70,0008.27
2021-08-23 03:19:00,,0825.9,5.00,0.00,29.4,28.3,00.0,38.4,31.3,17.4,0001.1,0015.34,0008.73,0008.29
2021-08-23 03:20:00,,0826.0,5.00,0.00,29.5,28.5,00.0,38.4,31.3,17.2,0001.3,0015.61,0008.74,0008.29
2021-08-23 03:21:00,,0826.0,5.00,0.00,29.5,28.6,00.0,38.4,31.4,17.1,0001.1,0015.49,0008.72,0008.28
2021-08-23 03:22:00,,0826.0,5.00,0.00,29.5,28.7,00.0,38.5,31.4,17.5,0001.2,0015.49,0008.75,0008.29
2021-08-23 03:23:00,,0826.0,5.00,0.00,29.6,28.8,00.0,38.5,31.5,17.7,0001.3,0015.56,0008.78,0008.29
2021-08-23 03:24:00,,0826.0,4.99,0.00,29.6,28.0,00.0,38.5,31.3,17.7,0001.4,0015.06,0008.81,0008.30
2021-08-23 03:25:00,,0826.0,5.00,0.00,29.4,25.9,00.0,38.5,30.7,17.9,0001.6,0014.85,0008.82,0008.31
2021-08-23 03:26:00,,0826.0,5.00,0.00,29.3,25.4,00.0,38.5,30.5,18.8,0001.7,0014.68,0008.85,0008.34
2021-08-23 03:27:00,,0826.1,5.00,0.00,29.2,25.8,00.0,38.4,30.7,19.4,0001.8,0013.82,0008.84,0008.35
2021-08-23 03:28:00,,0826.2,5.00,0.00,29.2,26.3,00.0,38.4,30.7,19.6,0002.2,0013.78,0008.81,0008.36
2021-08-23 03:29:00,,0826.2,5.01,0.00,29.2,26.8,00.0,38.3,30.8,19.6,0002.3,0013.84,0008.82,0008.36
2021-08-23 03:30:00,,0826.2,4.99,0.00,29.2,27.2,00.0,38.3,30.9,19.5,0002.3,0013.25,0008.85,0008.37
2021-08-23 03:31:00,,0826.2,5.01,0.00,29.2,27.5,00.0,38.3,31.0,19.3,0002.4,0013.06,0008.87,0008.39
2021-08-23 03:32:00,,0826.2,5.00,0.00,29.2,27.7,00.0,38.3,31.0,19.3,0002.6,0013.14,0008.89,0008.41
2021-08-23 03:33:00,,0826.2,4.99,0.00,29.3,28.0,00.0,38.3,31.1,19.0,0002.4,0013.13,0008.88,0008.40
2021-08-23 03:34:00,,0826.2,5.00,0.00,29.3,28.1,00.0,38.3,31.2,19.0,0002.5,0013.05,0008.85,0008.39
2021-08-23 03:35:00,,0826.2,5.00,0.00,29.3,28.3,00.0,38.4,31.2,19.0,0002.5,0012.98,0008.81,0008.37
2021-08-23 03:36:00,,0826.2,5.00,0.00,29.4,28.4,00.0,38.4,31.3,19.0,0002.5,0013.05,0008.83,0008.35
2021-08-23 03:37:00,,0826.2,4.99,0.00,29.4,28.6,00.0,38.4,31.3,19.0,0002.9,0013.33,0008.82,0008.33
2021-08-23 03:38:00,,0826.1,5.01,0.00,29.5,28.7,00.0,38.4,31.4,18.8,0002.7,0013.40,0008.83,0008.32
2021-08-23 03:39:00,,0826.2,5.01,0.00,29.5,28.7,00.0,38.4,31.4,18.9,0002.4,0013.35,0008.82,0008.31
2021-08-23 03:40:00,,0826.2,4.99,0.00,29.5,28.8,00.0,38.5,31.5,18.2,0002.5,0013.06,0008.81,0008.30
2021-08-23 03:41:00,,0826.2,4.99,0.00,29.6,28.9,00.0,38.5,31.5,18.0,0002.3,0013.29,0008.78,0008.30
2021-08-23 03:42:00,,0826.2,5.02,0.00,29.6,28.3,00.0,38.5,31.3,17.3,0002.5,0014.27,0008.77,0008.29
2021-08-23 03:43:00,,0826.1,4.99,0.00,29.5,26.1,00.0,38.5,30.7,17.7,0002.7,0014.24,0008.73,0008.27
2021-08-23 03:44:00,,0826.1,4.99,0.00,29.3,25.4,00.0,38.5,30.5,17.8,0002.9,0014.18,0008.70,0008.23
2021-08-23 03:45:00,,0826.1,5.00,0.00,29.2,25.7,00.0,38.4,30.6,17.5,0002.6,0014.13,0008.67,0008.20
2021-08-23 03:46:00,,0826.1,5.00,0.00,29.1,26.2,00.0,38.4,30.7,17.6,0002.5,0014.05,0008.65,0008.18
2021-08-23 03:47:00,,0826.1,5.01,0.00,29.1,26.7,00.0,38.3,30.8,17.7,0002.4,0013.86,0008.58,0008.15
2021-08-23 03:48:00,,0826.0,4.98,0.00,29.1,27.1,00.0,38.3,30.9,18.5,0002.3,0014.05,0008.55,0008.12
2021-08-23 03:49:00,,0826.1,5.01,0.00,29.2,27.4,00.0,38.3,30.9,18.2,0002.7,0013.94,0008.51,0008.10
2021-08-23 03:50:00,,0826.0,4.99,0.00,29.2,27.7,00.0,38.3,31.0,19.1,0002.9,0013.89,0008.46,0008.05
2021-08-23 03:51:00,,0826.0,4.99,0.00,29.2,27.9,00.0,38.3,31.1,18.7,0002.5,0013.53,0008.43,0008.02
2021-08-23 03:52:00,,0826.1,5.00,0.00,29.3,28.1,00.0,38.3,31.1,19.2,0002.4,0013.29,0008.41,0008.00
2021-08-23 03:53:00,,0826.1,5.00,0.00,29.3,28.2,00.0,38.3,31.2,19.4,0002.3,0012.54,0008.37,0007.96
2021-08-23 03:54:00,,0826.1,4.99,0.00,29.3,28.3,00.0,38.4,31.2,20.4,0001.9,0012.67,0008.39,0007.96
2021-08-23 03:55:00,,0826.1,5.01,0.00,29.4,28.4,00.0,38.4,31.3,20.2,0001.9,0012.83,0008.45,0008.01
2021-08-23 03:56:00,,0826.2,5.00,0.00,29.4,28.5,00.0,38.4,31.3,19.6,0002.2,0012.92,0008.52,0008.07
2021-08-23 03:57:00,,0826.2,5.00,0.00,29.5,28.5,00.0,38.4,31.4,19.3,0002.2,0013.01,0008.58,0008.12
2021-08-23 03:58:00,,0826.2,4.99,0.00,29.5,28.6,00.0,38.4,31.4,19.3,0002.1,0013.04,0008.61,0008.14
2021-08-23 03:59:00,,0826.2,5.01,0.00,29.5,28.6,00.0,38.5,31.4,19.1,0002.0,0012.60,0008.64,0008.20
